When you browse on this site, cookies collect data to enhance your experience and personalize the content and advertising you see.
Visit our Privacy Policy to learn more. By continuing to use the site, you agree to this use of cookies and data.
  • In Lithuania
  • List of Countries
  • For 7 days
  • Water Temperature
  • Weather Map
  • Weather Widgets
  • user-avatar
    Login

    Hourly Weather Phuket

    Today, 28 May, Thursday

    Time Temperature Precipitation Wind Pressure Humidity
    00:00 +32°C° 0 mm 4 mps 754 mmHg 77%
    01:00 +32°C° 0 mm 4 mps 754 mmHg 78%
    02:00 +32°C° 0 mm 4 mps 753 mmHg 78%
    03:00 +32°C° 0 mm 4 mps 753 mmHg 78%
    04:00 +32°C° 0 mm 4 mps 752 mmHg 78%
    05:00 +31°C° 0 mm 3 mps 753 mmHg 77%
    06:00 +31°C° 0 mm 3 mps 753 mmHg 77%
    07:00 +31°C° 0 mm 3 mps 753 mmHg 78%
    08:00 +31°C° 0 mm 3 mps 753 mmHg 76%
    09:00 +31°C° 0 mm 3 mps 754 mmHg 75%
    10:00 +31°C° 0 mm 3 mps 754 mmHg 74%
    11:00 +31°C° 0 mm 3 mps 754 mmHg 73%
    12:00 +33°C° 0 mm 3 mps 753 mmHg 71%
    13:00 +33°C° 0 mm 3 mps 753 mmHg 68%
    14:00 +33°C° 0 mm 3 mps 753 mmHg 69%
    15:00 +33°C° 0 mm 4 mps 752 mmHg 71%
    16:00 +33°C° 0 mm 5 mps 751 mmHg 72%
    17:00 +33°C° 0 mm 5 mps 752 mmHg 73%
    18:00 +32°C° 0 mm 4 mps 752 mmHg 74%
    19:00 +32°C° 0 mm 4 mps 752 mmHg 75%
    20:00 +32°C° 0.4 mm 4 mps 753 mmHg 76%
    21:00 +32°C° 0.4 mm 4 mps 753 mmHg 77%
    22:00 +32°C° 0.4 mm 4 mps 754 mmHg 78%
    23:00 +32°C° 1.4 mm 4 mps 754 mmHg 77%

    Tomorrow, 29 May, Friday

    Time Temperature Precipitation Wind Pressure Humidity
    00:00 +32°C° 1.4 mm 4 mps 753 mmHg 77%
    01:00 +31°C° 1.4 mm 3 mps 753 mmHg 77%
    02:00 +31°C° 0.7 mm 3 mps 753 mmHg 76%
    03:00 +31°C° 0.7 mm 3 mps 752 mmHg 75%
    04:00 +31°C° 0.7 mm 2 mps 752 mmHg 75%
    05:00 +31°C° 0 mm 2 mps 752 mmHg 75%
    06:00 +31°C° 0 mm 2 mps 752 mmHg 75%
    07:00 +31°C° 0 mm 2 mps 753 mmHg 75%
    08:00 +31°C° 0.1 mm 2 mps 753 mmHg 74%
    09:00 +31°C° 0.1 mm 2 mps 754 mmHg 73%
    10:00 +31°C° 0.1 mm 2 mps 754 mmHg 72%
    11:00 +31°C° 0.1 mm 2 mps 754 mmHg 71%
    12:00 +32°C° 0.1 mm 2 mps 754 mmHg 69%
    13:00 +32°C° 0.1 mm 2 mps 754 mmHg 68%
    14:00 +32°C° 0 mm 2 mps 753 mmHg 68%
    15:00 +33°C° 0 mm 3 mps 752 mmHg 68%
    16:00 +33°C° 0 mm 4 mps 751 mmHg 68%
    17:00 +33°C° 0 mm 4 mps 752 mmHg 70%
    18:00 +33°C° 0 mm 4 mps 752 mmHg 72%
    19:00 +32°C° 0 mm 5 mps 753 mmHg 74%
    20:00 +32°C° 0.8 mm 5 mps 753 mmHg 74%
    21:00 +32°C° 0.8 mm 4 mps 754 mmHg 75%
    22:00 +32°C° 0.8 mm 4 mps 754 mmHg 76%
    23:00 +32°C° 1.3 mm 4 mps 754 mmHg 75%

    Day after tomorrow, 30 May, Saturday

    Time Temperature Precipitation Wind Pressure Humidity
    00:00 +32°C° 1.3 mm 4 mps 754 mmHg 74%
    01:00 +30°C° 1.3 mm 4 mps 754 mmHg 74%
    02:00 +30°C° 0 mm 4 mps 754 mmHg 73%
    03:00 +30°C° 0 mm 4 mps 753 mmHg 72%
    04:00 +30°C° 0 mm 4 mps 753 mmHg 72%
    05:00 +30°C° 0 mm 3 mps 753 mmHg 71%
    06:00 +30°C° 0 mm 3 mps 754 mmHg 70%
    07:00 +31°C° 0 mm 3 mps 754 mmHg 70%
    08:00 +31°C° 0 mm 2 mps 754 mmHg 69%
    09:00 +31°C° 0 mm 2 mps 755 mmHg 67%
    10:00 +31°C° 0 mm 2 mps 755 mmHg 66%
    11:00 +32°C° 0 mm 2 mps 755 mmHg 65%
    12:00 +33°C° 0 mm 3 mps 755 mmHg 65%
    13:00 +33°C° 0 mm 3 mps 755 mmHg 64%
    14:00 +31°C° 0 mm 3 mps 754 mmHg 68%
    15:00 +31°C° 0 mm 3 mps 753 mmHg 70%
    16:00 +32°C° 0 mm 4 mps 753 mmHg 71%
    17:00 +32°C° 0.6 mm 4 mps 753 mmHg 72%
    18:00 +32°C° 0.6 mm 4 mps 754 mmHg 74%
    19:00 +30°C° 0.6 mm 4 mps 754 mmHg 75%
    20:00 +30°C° 0 mm 3 mps 755 mmHg 74%
    21:00 +30°C° 0 mm 3 mps 755 mmHg 73%
    22:00 +30°C° 0 mm 2 mps 756 mmHg 72%
    23:00 +30°C° 0 mm 2 mps 755 mmHg 72%

    31 May, Sunday

    Time Temperature Precipitation Wind Pressure Humidity
    00:00 +30°C° 0 mm 2 mps 755 mmHg 72%
    01:00 +30°C° 0 mm 2 mps 754 mmHg 72%
    02:00 +30°C° 0 mm 2 mps 754 mmHg 71%
    03:00 +30°C° 0 mm 1 mps 754 mmHg 71%
    04:00 +30°C° 0 mm 1 mps 753 mmHg 71%
    05:00 +30°C° 0 mm 1 mps 754 mmHg 70%
    06:00 +30°C° 0 mm 1 mps 754 mmHg 70%
    07:00 +28°C° 0 mm 0 mps 754 mmHg 69%
    08:00 +28°C° 0 mm 0 mps 754 mmHg 69%
    09:00 +31°C° 0 mm 1 mps 755 mmHg 68%
    10:00 +31°C° 0 mm 1 mps 755 mmHg 68%
    11:00 +31°C° 0 mm 1 mps 755 mmHg 68%
    12:00 +31°C° 0 mm 1 mps 754 mmHg 68%
    13:00 +31°C° 0 mm 1 mps 754 mmHg 68%
    14:00 +31°C° 0 mm 2 mps 754 mmHg 69%
    15:00 +31°C° 0 mm 3 mps 753 mmHg 69%
    16:00 +33°C° 0 mm 4 mps 752 mmHg 70%
    17:00 +32°C° 0.1 mm 4 mps 753 mmHg 71%
    18:00 +32°C° 0.1 mm 4 mps 753 mmHg 72%
    19:00 +32°C° 0.1 mm 5 mps 753 mmHg 73%
    20:00 +32°C° 0 mm 4 mps 754 mmHg 74%
    21:00 +32°C° 0 mm 4 mps 754 mmHg 74%
    22:00 +32°C° 0 mm 4 mps 755 mmHg 74%
    23:00 +32°C° 0 mm 4 mps 754 mmHg 75%

    1 June, Monday

    Time Temperature Precipitation Wind Pressure Humidity
    00:00 +32°C° 0 mm 4 mps 754 mmHg 75%
    01:00 +32°C° 0 mm 4 mps 754 mmHg 76%
    02:00 +30°C° 0 mm 5 mps 753 mmHg 76%
    03:00 +30°C° 0 mm 5 mps 753 mmHg 77%
    04:00 +30°C° 0 mm 5 mps 753 mmHg 78%
    05:00 +30°C° 0.1 mm 5 mps 753 mmHg 78%
    06:00 +30°C° 0.1 mm 4 mps 754 mmHg 77%
    07:00 +30°C° 0.1 mm 4 mps 754 mmHg 77%
    08:00 +32°C° 0.6 mm 4 mps 755 mmHg 76%
    09:00 +32°C° 0.6 mm 4 mps 755 mmHg 74%
    10:00 +32°C° 0.6 mm 4 mps 755 mmHg 73%
    11:00 +32°C° 0.3 mm 4 mps 755 mmHg 72%
    12:00 +31°C° 0.3 mm 3 mps 754 mmHg 70%
    13:00 +33°C° 0.3 mm 3 mps 754 mmHg 69%
    14:00 +33°C° 0 mm 4 mps 753 mmHg 69%
    15:00 +32°C° 0 mm 4 mps 753 mmHg 70%
    16:00 +32°C° 0 mm 4 mps 752 mmHg 70%
    17:00 +32°C° 0 mm 4 mps 752 mmHg 71%
    18:00 +32°C° 0 mm 4 mps 753 mmHg 73%
    19:00 +32°C° 0 mm 4 mps 753 mmHg 74%
    20:00 +32°C° 0 mm 4 mps 753 mmHg 74%
    21:00 +31°C° 0 mm 3 mps 754 mmHg 74%
    22:00 +31°C° 0 mm 3 mps 754 mmHg 74%
    23:00 +31°C° 0 mm 3 mps 754 mmHg 74%

    2 June, Tuesday

    Time Temperature Precipitation Wind Pressure Humidity
    00:00 +30°C° 0 mm 3 mps 754 mmHg 74%
    01:00 +30°C° 0 mm 3 mps 753 mmHg 74%
    02:00 +30°C° 0 mm 3 mps 753 mmHg 74%
    03:00 +30°C° 0 mm 3 mps 753 mmHg 74%
    04:00 +30°C° 0 mm 3 mps 752 mmHg 75%
    05:00 +30°C° 0 mm 3 mps 753 mmHg 75%
    06:00 +30°C° 0 mm 3 mps 753 mmHg 74%
    07:00 +30°C° 0 mm 3 mps 753 mmHg 74%
    08:00 +31°C° 0 mm 3 mps 754 mmHg 73%
    09:00 +31°C° 0 mm 3 mps 754 mmHg 71%
    10:00 +31°C° 0 mm 3 mps 754 mmHg 69%
    11:00 +31°C° 0 mm 3 mps 754 mmHg 69%
    12:00 +32°C° 0 mm 4 mps 754 mmHg 69%
    13:00 +32°C° 0 mm 4 mps 753 mmHg 69%
    14:00 +32°C° 0 mm 4 mps 753 mmHg 70%
    15:00 +32°C° 0 mm 5 mps 752 mmHg 71%
    16:00 +32°C° 0 mm 5 mps 752 mmHg 72%
    17:00 +32°C° 0 mm 5 mps 752 mmHg 73%
    18:00 +32°C° 0 mm 5 mps 752 mmHg 73%
    19:00 +32°C° 0 mm 4 mps 752 mmHg 74%
    20:00 +32°C° 0 mm 4 mps 753 mmHg 74%
    21:00 +32°C° 0 mm 4 mps 753 mmHg 75%
    22:00 +32°C° 0 mm 4 mps 754 mmHg 75%
    23:00 +30°C° 0 mm 4 mps 753 mmHg 76%
    Show more